OE3KJN-13 Weather Reports


time (UTC)temp
C
wind
direction
speed
KPH
gust
KPH
rain 1hr
cm
rain 24hr
cm
rain mn
cm
humidity
%
barometer
mb
20260507035603 17 80 0.0 0.0 0.00 0.00 0.00 100
20260507035103 17 80 0.0 3.2 0.00 0.00 0.00 100
20260507034603 16 146 1.6 8.0 0.00 0.00 0.00 100
20260507034103 16 132 6.4 6.4 0.00 0.00 0.00 100
20260507033602 17 153 0.0 0.0 0.00 0.00 0.00 100
20260507033102 18 153 0.0 0.0 0.00 0.00 0.00 100
20260507032602 16 153 0.0 6.4 0.00 0.00 0.00 100
20260507032101 17 158 0.0 0.0 0.00 0.00 0.00 100
20260507031601 17 158 0.0 4.8 0.00 0.00 0.00 100
20260507031101 16 163 3.2 6.4 0.00 0.00 0.00 100
20260507030601 17 187 3.2 3.2 0.00 0.00 0.00 100
20260507030100 18 222 1.6 3.2 0.00 0.00 0.00 100
20260507025600 18 203 3.2 3.2 0.00 0.00 0.00 100
20260507025100 18 123 0.0 4.8 0.00 0.00 0.00 100
20260507024559 18 189 3.2 4.8 0.00 0.00 0.00 100
20260507024059 17 172 3.2 4.8 0.00 0.00 0.00 100
20260507023559 16 147 3.2 8.0 0.00 0.00 0.00 100
20260507023058 16 144 3.2 6.4 0.00 0.00 0.00 100
20260507022558 19 355 0.0 0.0 0.00 0.00 0.00 100
20260507022058 18 355 0.0 4.8 0.00 0.00 0.00 100
20260507021558 18 357 3.2 9.7 0.00 0.00 0.00 100
20260507021057 19 270 0.0 8.0 0.00 0.00 0.00 100
20260507020557 19 26 3.2 6.4 0.00 0.00 0.00 100
20260507020057 19 16 4.8 12.9 0.00 0.00 0.00 100
20260507015556 19 348 4.8 14.5 0.00 0.00 0.00 100
20260507015056 18 330 4.8 20.9 0.00 0.00 0.00 100
20260507014556 18 358 4.8 12.9 0.00 0.00 0.00 100
20260507014056 17 333 3.2 12.9 0.00 0.00 0.00 100
20260507013556 18 25 3.2 12.9 0.00 0.00 0.00 100
20260507013055 17 39 3.2 14.5 0.00 0.00 0.00 100
20260507012555 17 358 6.4 16.1 0.00 0.00 0.00 100
20260507012054 18 1 11.3 22.5 0.00 0.00 0.00 100
20260507011554 17 327 4.8 22.5 0.00 0.00 0.00 100
20260507011054 17 9 9.7 19.3 0.00 0.00 0.00 100
20260507010554 18 1 12.9 22.5 0.00 0.00 0.00 100
20260507010053 18 0 8.0 29.0 0.00 0.00 0.00 100
20260507005553 18 19 8.0 25.7 0.00 0.00 0.00 100
20260507005053 17 315 4.8 33.8 0.00 0.00 0.00 100
20260507004552 17 11 19.3 29.0 0.00 0.00 0.00 100
20260507004052 17 12 14.5 33.8 0.00 0.00 0.00 100
20260507003552 17 28 6.4 27.4 0.00 0.00 0.00 100
20260507003051 18 279 3.2 27.4 0.00 0.00 0.00 100
20260507002551 18 2 20.9 20.9 0.00 0.00 0.00 100
20260507002051 18 282 1.6 16.1 0.00 0.00 0.00 100
20260507001551 18 28 11.3 17.7 0.00 0.00 0.00 100
20260507001050 18 11 3.2 14.5 0.00 0.00 0.00 100
20260507000550 18 33 4.8 14.5 0.00 0.00 0.00 100
20260507000050 18 42 3.2 9.7 0.00 0.00 0.00 100
20260506235549 17 29 1.6 12.9 0.00 0.00 0.00 100
20260506235049 19 309 4.8 4.8 0.00 0.00 0.00 100
20260506234549 18 25 0.0 4.8 0.00 0.00 0.00 100
20260506234049 18 333 0.0 8.0 0.00 0.00 0.00 100
20260506233548 18 42 6.4 6.4 0.00 0.00 0.00 100
20260506233048 18 133 0.0 4.8 0.00 0.00 0.00 100
20260506232548 19 39 0.0 6.4 0.00 0.00 0.00 100
20260506232047 18 19 6.4 6.4 0.00 0.00 0.00 100
20260506231547 18 312 0.0 0.0 0.00 0.00 0.00 100
20260506231047 18 312 0.0 3.2 0.00 0.00 0.00 100
20260506230547 20 16 0.0 0.0 0.00 0.00 0.00 100
20260506230046 18 16 0.0 0.0 0.00 0.00 0.00 100
20260506225546 18 16 0.0 0.0 0.00 0.00 0.00 100
20260506225046 18 16 0.0 0.0 0.00 0.00 0.00 100
20260506224545 18 16 0.0 6.4 0.00 0.00 0.00 100
20260506224045 18 63 1.6 3.2 0.00 0.00 0.00 100
20260506223545 18 268 0.0 4.8 0.00 0.00 0.00 100
20260506223044 18 305 3.2 6.4 0.00 0.00 0.00 100
20260506222544 18 213 0.0 4.8 0.00 0.00 0.00 100
20260506222044 18 293 0.0 8.0 0.00 0.00 0.00 100
20260506221544 18 217 3.2 9.7 0.00 0.00 0.00 100
20260506221043 18 307 3.2 8.0 0.00 0.00 0.00 100
20260506220543 19 278 3.2 9.7 0.00 0.00 0.00 100
20260506220043 19 291 6.4 8.0 0.00 0.00 0.00 100
20260506215542 19 337 1.6 11.3 0.00 0.00 0.00 100
20260506215042 20 267 6.4 9.7 0.00 0.00 0.00 100
20260506214542 19 289 6.4 8.0 0.00 0.00 0.00 100
20260506214042 20 262 1.6 6.4 0.00 0.00 0.00 100
20260506213541 20 288 4.8 8.0 0.00 0.00 0.00 100
20260506213041 20 40 0.0 9.7 0.00 0.00 0.00 100
20260506212541 20 261 3.2 12.9 0.00 0.00 0.00 100
20260506212040 19 220 9.7 16.1 0.00 0.00 0.00 100
20260506211540 19 271 6.4 16.1 0.00 0.00 0.00 100
20260506211040 20 293 9.7 16.1 0.00 0.00 0.00 100
20260506210540 20 261 6.4 16.1 0.00 0.00 0.00 100
20260506210039 20 253 4.8 20.9 0.00 0.00 0.00 100
20260506205539 20 309 9.7 20.9 0.00 0.00 0.00 100
20260506205039 20 286 14.5 19.3 0.00 0.00 0.00 100
20260506204538 20 260 16.1 24.1 0.00 0.00 0.00 100
20260506204038 20 307 12.9 25.7 0.00 0.00 0.00 100
20260506203538 20 319 9.7 29.0 0.00 0.00 0.00 100
20260506203037 20 313 12.9 29.0 0.00 0.00 0.00 100
20260506202537 20 289 22.5 30.6 0.00 0.00 0.00 100
20260506202037 20 279 17.7 29.0 0.00 0.00 0.00 100
20260506201537 20 258 24.1 24.1 0.00 0.00 0.00 100
20260506201036 20 262 11.3 24.1 0.00 0.00 0.00 100
20260506200536 20 303 8.0 20.9 0.00 0.00 0.00 100
20260506200036 20 271 11.3 24.1 0.00 0.00 0.00 100
20260506195535 20 284 11.3 19.3 0.00 0.00 0.00 100
20260506195035 20 295 12.9 20.9 0.00 0.00 0.00 100
20260506194535 20 285 9.7 16.1 0.00 0.00 0.00 100
20260506194035 20 296 11.3 16.1 0.00 0.00 0.00 100
20260506193534 20 250 8.0 19.3 0.00 0.00 0.00 100
20260506193034 21 261 8.0 20.9 0.00 0.00 0.00 100
20260506192534 20 244 6.4 17.7 0.00 0.00 0.00 100
20260506192033 20 326 6.4 25.7 0.00 0.00 0.00 100
20260506191533 20 258 14.5 25.7 0.00 0.00 0.00 100
20260506191033 20 237 11.3 24.1 0.00 0.00 0.00 100
20260506190533 20 248 12.9 24.1 0.00 0.00 0.00 100
20260506190032 21 260 6.4 24.1 0.00 0.00 0.00 100
20260506185532 20 261 12.9 19.3 0.00 0.00 0.00 100
20260506185032 20 254 14.5 19.3 0.00 0.00 0.00 100
20260506184531 21 219 12.9 19.3 0.00 0.00 0.00 100
20260506184031 21 243 6.4 27.4 0.00 0.00 0.00 100
20260506183531 21 248 14.5 22.5 0.00 0.00 0.00 100
20260506183030 21 205 17.7 24.1 0.00 0.00 0.00 100
20260506182530 21 154 8.0 24.1 0.00 0.00 0.00 100
20260506182030 21 262 11.3 22.5 0.00 0.00 0.00 100
20260506181530 21 279 14.5 25.7 0.00 0.00 0.00 100
20260506181029 21 255 8.0 25.7 0.00 0.00 0.00 100
20260506180529 21 303 9.7 22.5 0.00 0.00 0.00 100
20260506180029 21 253 12.9 24.1 0.00 0.00 0.00 100
20260506175528 22 265 9.7 24.1 0.00 0.00 0.00 100
20260506175028 22 313 14.5 24.1 0.00 0.00 0.00 100
20260506174528 22 267 12.9 24.1 0.00 0.00 0.00 100
20260506174028 22 258 4.8 22.5 0.00 0.00 0.00 100
20260506173527 22 293 9.7 27.4 0.00 0.00 0.00 100
20260506173027 22 288 16.1 27.4 0.00 0.00 0.00 100
20260506172527 22 291 11.3 32.2 0.00 0.00 0.00 100
20260506172026 22 299 14.5 35.4 0.00 0.00 0.00 100
20260506171526 22 243 16.1 25.7 0.00 0.00 0.00 100
20260506171026 23 315 6.4 17.7 0.00 0.00 0.00 100
20260506170025 23 275 12.9 19.3 0.00 0.00 0.00 100
20260506165525 23 289 12.9 32.2 0.00 0.00 0.00 100
20260506165025 23 329 12.9 27.4 0.00 0.00 0.00 100
20260506164524 23 248 16.1 25.7 0.00 0.00 0.00 100
20260506164024 23 241 19.3 22.5 0.00 0.00 0.00 100
20260506163524 23 208 3.2 24.1 0.00 0.00 0.00 100
20260506163023 23 243 12.9 22.5 0.00 0.00 0.00 100
20260506162523 24 295 9.7 25.7 0.00 0.00 0.00 100
20260506162023 24 293 12.9 29.0 0.00 0.00 0.00 100
20260506161523 24 202 16.1 27.4 0.00 0.00 0.00 100
20260506161022 25 220 3.2 25.7 0.00 0.00 0.00 100
20260506160522 24 275 16.1 27.4 0.00 0.00 0.00 100
20260506160022 25 303 12.9 27.4 0.00 0.00 0.00 100
20260506155521 25 275 27.4 27.4 0.00 0.00 0.00 100
20260506155021 25 279 12.9 24.1 0.00 0.00 0.00 100
20260506154521 25 323 9.7 25.7 0.00 0.00 0.00 100
20260506154020 24 239 12.9 25.7 0.00 0.00 0.00 100
20260506153520 25 279 17.7 32.2 0.00 0.00 0.00 100
20260506153020 25 284 8.0 24.1 0.00 0.00 0.00 100
20260506152520 25 255 17.7 29.0 0.00 0.00 0.00 100
20260506152019 25 326 9.7 27.4 0.00 0.00 0.00 100
20260506151519 25 261 12.9 30.6 0.00 0.00 0.00 100
20260506151019 25 299 11.3 33.8 0.00 0.00 0.00 100
20260506150518 25 271 17.7 35.4 0.00 0.00 0.00 100
20260506150018 26 161 14.5 29.0 0.00 0.00 0.00 100
20260506145518 25 260 14.5 33.8 0.00 0.00 0.00 100
20260506145018 25 286 11.3 29.0 0.00 0.00 0.00 100
20260506144517 25 296 20.9 30.6 0.00 0.00 0.00 100
20260506144017 25 275 17.7 35.4 0.00 0.00 0.00 100
20260506143517 26 286 30.6 33.8 0.00 0.00 0.00 100
20260506143016 26 323 12.9 30.6 0.00 0.00 0.00 100
20260506142516 26 255 12.9 32.2 0.00 0.00 0.00 100
20260506142016 26 299 22.5 35.4 0.00 0.00 0.00 100
20260506141516 28 289 14.5 38.6 0.00 0.00 0.00 100
20260506141015 26 309 12.9 33.8 0.00 0.00 0.00 100
20260506140515 27 281 17.7 32.2 0.00 0.00 0.00 100
20260506140015 27 278 11.3 32.2 0.00 0.00 0.00 100
20260506135514 27 292 20.9 32.2 0.00 0.00 0.00 100
20260506135014 28 316 3.2 32.2 0.00 0.00 0.00 100
20260506134514 28 358 9.7 35.4 0.00 0.00 0.00 100
20260506134013 28 253 9.7 29.0 0.00 0.00 0.00 100
20260506133514 26 251 16.1 29.0 0.00 0.00 0.00 100
20260506133013 26 293 19.3 33.8 0.00 0.00 0.00 100
20260506132513 27 299 17.7 32.2 0.00 0.00 0.00 100
20260506132012 28 285 9.7 33.8 0.00 0.00 0.00 100
20260506131512 29 258 19.3 32.2 0.00 0.00 0.00 100
20260506131012 28 250 19.3 33.8 0.00 0.00 0.00 100
20260506130511 27 281 14.5 33.8 0.00 0.00 0.00 100
20260506130011 26 281 11.3 25.7 0.00 0.00 0.00 100
20260506125511 26 213 6.4 40.2 0.00 0.00 0.00 100
20260506125011 28 306 16.1 29.0 0.00 0.00 0.00 100
20260506124510 28 286 11.3 38.6 0.00 0.00 0.00 100
20260506124010 27 278 30.6 30.6 0.00 0.00 0.00 100
20260506123510 28 279 4.8 37.0 0.00 0.00 0.00 100
20260506123009 27 302 6.4 29.0 0.00 0.00 0.00 100
20260506122509 26 282 8.0 33.8 0.00 0.00 0.00 100
20260506122009 26 248 11.3 32.2 0.00 0.00 0.00 100
20260506121509 26 195 11.3 32.2 0.00 0.00 0.00 100
20260506121008 27 233 14.5 22.5 0.00 0.00 0.00 100
20260506120508 27 299 11.3 37.0 0.00 0.00 0.00 100
20260506120008 27 19 9.7 29.0 0.00 0.00 0.00 100
20260506115507 27 326 9.7 25.7 0.00 0.00 0.00 100
20260506115007 27 248 16.1 32.2 0.00 0.00 0.00 100
20260506114507 27 281 16.1 30.6 0.00 0.00 0.00 100
20260506114006 26 244 6.4 37.0 0.00 0.00 0.00 100
20260506113506 27 279 14.5 25.7 0.00 0.00 0.00 100
20260506113006 27 151 4.8 32.2 0.00 0.00 0.00 100
20260506112506 27 234 8.0 27.4 0.00 0.00 0.00 100
20260506112005 27 234 8.0 30.6 0.00 0.00 0.00 100
20260506111505 27 313 8.0 25.7 0.00 0.00 0.00 100
20260506111005 27 250 14.5 37.0 0.00 0.00 0.00 100
20260506110504 27 243 24.1 30.6 0.00 0.00 0.00 100
20260506110004 26 267 14.5 37.0 0.00 0.00 0.00 100
20260506105504 25 178 9.7 27.4 0.00 0.00 0.00 100
20260506105004 25 181 19.3 32.2 0.00 0.00 0.00 100
20260506104503 25 191 11.3 32.2 0.00 0.00 0.00 100
20260506104003 25 160 19.3 27.4 0.00 0.00 0.00 100
20260506103503 26 233 25.7 27.4 0.00 0.00 0.00 100
20260506103002 26 202 12.9 27.4 0.00 0.00 0.00 100
20260506102502 25 240 14.5 32.2 0.00 0.00 0.00 100
20260506102002 26 244 12.9 25.7 0.00 0.00 0.00 100
20260506101501 25 240 3.2 27.4 0.00 0.00 0.00 100
20260506101001 25 165 6.4 25.7 0.00 0.00 0.00 100
20260506100501 23 201 17.7 27.4 0.00 0.00 0.00 100
20260506100001 24 192 11.3 35.4 0.00 0.00 0.00 100
20260506095500 25 236 11.3 22.5 0.00 0.00 0.00 100
20260506095000 26 182 9.7 22.5 0.00 0.00 0.00 100
20260506094500 26 278 9.7 32.2 0.00 0.00 0.00 100
20260506094000 26 296 17.7 30.6 0.00 0.00 0.00 100
20260506093459 23 247 12.9 27.4 0.00 0.00 0.00 100
20260506092959 24 177 11.3 25.7 0.00 0.00 0.00 100
20260506092459 24 178 24.1 24.1 0.00 0.00 0.00 100
20260506091958 25 234 8.0 22.5 0.00 0.00 0.00 100
20260506091458 26 222 9.7 25.7 0.00 0.00 0.00 100
20260506090958 24 187 17.7 20.9 0.00 0.00 0.00 100
20260506090458 24 187 9.7 20.9 0.00 0.00 0.00 100
20260506085957 25 260 3.2 20.9 0.00 0.00 0.00 100
20260506085457 25 268 6.4 22.5 0.00 0.00 0.00 100
20260506084957 24 191 11.3 22.5 0.00 0.00 0.00 100
20260506084456 24 184 11.3 22.5 0.00 0.00 0.00 100
20260506083956 25 184 12.9 17.7 0.00 0.00 0.00 100
20260506083456 25 208 8.0 17.7 0.00 0.00 0.00 100
20260506082955 26 192 12.9 17.7 0.00 0.00 0.00 100
20260506082455 26 71 0.0 9.7 0.00 0.00 0.00 100
20260506081955 26 187 0.0 12.9 0.00 0.00 0.00 100
20260506081455 26 180 12.9 12.9 0.00 0.00 0.00 100
20260506080954 28 206 8.0 12.9 0.00 0.00 0.00 100
20260506080454 28 250 0.0 3.2 0.00 0.00 0.00 100
20260506073452 28 275 3.2 8.0 0.00 0.00 0.00 100
20260506072952 27 262 3.2 8.0 0.00 0.00 0.00 100
20260506072452 26 202 6.4 9.7 0.00 0.00 0.00 100
20260506071951 28 181 0.0 4.8 0.00 0.00 0.00 100
20260506071451 27 355 1.6 6.4 0.00 0.00 0.00 100
20260506070951 28 213 1.6 3.2 0.00 0.00 0.00 100
20260506070450 28 320 1.6 6.4 0.00 0.00 0.00 100
20260506062448 26 4 8.0 8.0 0.00 0.00 0.00 100
20260506061948 26 326 1.6 8.0 0.00 0.00 0.00 100
20260506061448 26 326 4.8 6.4 0.00 0.00 0.00 100
20260506060947 25 292 4.8 6.4 0.00 0.00 0.00 100
20260506060447 23 317 6.4 6.4 0.00 0.00 0.00 100
20260506050944 21 326 6.4 9.7 0.00 0.00 0.00 100
20260506050444 23 333 3.2 6.4 0.00 0.00 0.00 100
20260506044943 22 319 1.6 6.4 0.00 0.00 0.00 100
20260506044442 21 331 3.2 4.8 0.00 0.00 0.00 100
20260506043942 20 299 3.2 3.2 0.00 0.00 0.00 100
20260506043442 18 262 3.2 4.8 0.00 0.00 0.00 100
20260506042941 18 232 3.2 4.8 0.00 0.00 0.00 100
20260506042441 18 303 1.6 3.2 0.00 0.00 0.00 100
20260506041941 17 330 0.0 4.8 0.00 0.00 0.00 100
20260506041441 17 351 3.2 4.8 0.00 0.00 0.00 100
20260506040940 17 313 1.6 4.8 0.00 0.00 0.00 100
20260506040440 17 260 1.6 3.2 0.00 0.00 0.00 100
20260506035940 17 278 1.6 3.2 0.00 0.00 0.00 100